Вернуться в каталог

BEIDOU 3M18

АктивенНавигацияMEO
NORAD 43707·PAYLOAD·🇨🇳 China

Запущен Nov 18, 2018 с Xichang Satellite Launch Center

Loading…

Ближайшие Пролёты (ближайшие 24 часа)

TLE

СвежийSource: CelesTrak SupGP

Эпоха: Sep 12, 2026, 00:00 UTC

1 43707C 18093B   26255.00000000  .00000000  00000+0  00000+0 0  2555
2 43707  54.1669 179.3457 0007448 339.7571 271.8335  1.86226776    13

Отслеживайте BEIDOU 3M18 в реальном времени с AllMySat

Download on the App Store